Regional Weather Roundup
Issued by NWS Wakefield, VA

Home | Current Version | Previous Version | Text Only | Print | Product List | Glossary Off
Versions: 1 2 3 4 5 6 7 8 9 10 11 12 13 14 15 16 17 18 19 20 21 22 23 24 25 26 27 28

000
ASUS41 KAKQ 270215
RWRAKQ

REGIONAL WEATHER ROUNDUP
NATIONAL WEATHER SERVICE WAKEFIELD VA
1000 PM EDT WED JUL 26 2017

Note: "fair" indicates few or no clouds below 12,000 feet with no
significant weather and/or obstructions to visibility. * = Denotes
station may not report precipitation (e.g., rain,snow,etc.),
thunder or fog.

VAZ042-051-052>054-056-270300-
NORTHERN VIRGINIA

CITY           SKY/WX    TMP DP  RH WIND       PRES   REMARKS
WASH NATIONAL  PTCLDY    77  69  76 SE8       30.11R
DULLES         MOCLDY    75  65  70 SE6       30.10R
FORT BELVOIR   PTCLDY    74  65  73 SE3       30.10R
QUANTICO       CLOUDY    79  71  76 S14       30.10R
FREDERICKSBRG* PTCLDY    76  69  78 SE3       30.09R
STAFFORD*      MOCLDY    72  70  92 SE3       30.13S
WARRENTON      PTCLDY    76  65  68 SE6       30.09S
CULPEPER*      MOCLDY    76  69  77 CALM      30.10S
MANASSAS*      MOCLDY    74  67  78 CALM      30.10R
LEESBURG*      PTCLDY    77  68  73 E3        30.11R
WINCHESTER     CLOUDY    68  63  83 CALM      30.09S
FRONT ROYAL*   CLOUDY    75  64  69 CALM      30.09R
LURAY*         MOCLDY    73  66  78 CALM      30.10S
$$

VAZ048-049-060>072-079>083-270300-
CENTRAL AND SOUTH CENTRAL VIRGINIA

CITY           SKY/WX    TMP DP  RH WIND       PRES   REMARKS
RICHMOND       PTCLDY    74  65  73 SE9       30.10R
CHESTERFIELD*  NOT AVBL
PETERSBURG*    PTCLDY    75  66  73 CALM      30.10R
HANOVER        PTCLDY    75  63  66 VRB5      30.11R HAZE
TAPPAHANNOCK*  CLEAR     74  58  56 SE6       30.12R
QUINTON*       FAIR      73  65  76 E13       30.10R
CHARLOTTSVILLE CLEAR     73  67  81 CALM      30.10R
GORDONSVILLE*  PTCLDY    72  68  89 CALM      30.09S
ORANGE*        PTCLDY    72  66  83 E5        30.09S
LOUISA*        MOCLDY    72  64  78 E5        30.10R
BUMPASS*       CLOUDY    76  68  77 E3        30.10R
FARMVILLE*     CLOUDY    75  64  69 CALM      30.08R
CREWE*         CLOUDY    74  68  80 CALM      30.08S
FORT PICKETT*  MOCLDY   N/A N/A N/A SE3       30.09S
CHASE CITY*    CLOUDY    77  69  75 CALM      30.09R
CLARKSVILLE*   FAIR      77  70  78 S3        30.08R
SOUTH HILL*    CLEAR     76  68  76 CALM      30.14S
LAWRENCEVILLE* MOCLDY    76  67  72 CALM      30.09R
EMPORIA*       CLOUDY    73  70  88 E6        30.11R
$$

VAZ088>098-270300-
SOUTHEAST VIRGINIA

CITY           SKY/WX    TMP DP  RH WIND       PRES   REMARKS
NORFOLK        CLEAR     74  66  76 SE7       30.12S
VIRGINIA BEACH PTCLDY    72  64  76 SE6       30.11S
NORFOLK NAVAL  PTCLDY    74  65  73 SE7       30.13S
WEST POINT*    CLEAR     73  65  75 E7        30.13R
SALUDA*        CLOUDY    73  68  83 SE8       30.11S
NEWPORT NEWS   CLEAR     74  65  73 SE8       30.11R
LANGLEY AFB    CLEAR     74  66  77 SE7       30.12R
FORT EUSTIS    CLEAR     75  66  74 SE8       30.09R
WILLIAMSBURG*  CLEAR     75  66  73 CALM      30.12R
HR EXEC AP*    FAIR      72  64  78 SE6       30.10S
FRANKLIN*      CLEAR     73  66  78 SE5       30.12R
US460-WAKEFLD  CLEAR     75  67  76 VRB5      30.11R
$$

VAZ020-022-025-037-045-270300-
WEST CENTRAL AND SOUTHWEST VIRGINIA

CITY           SKY/WX    TMP DP  RH WIND       PRES   REMARKS
STAUNTON*      CLEAR     72  65  79 CALM      30.13S
WAYNESBORO*    CLEAR     69  67  93 CALM      30.13S
HOT SPRINGS VA PTCLDY    64  61  88 CALM      30.26R
LYNCHBURG      CLEAR     70  67  90 CALM      30.11S
DANVILLE       CLEAR     72  72 100 CALM      30.09S
SOUTH BOSTON*  FAIR      74  71  88 CALM      30.09R
MARTINSVILLE   CLEAR     70  68  94 CALM      30.14R
ROANOKE        MOCLDY    77  67  71 S5        30.14R
BLACKSBURG     MOCLDY    73  66  79 CALM      30.20R
DUBLIN*        CLEAR     73  63  71 SW3       30.18R
MARION*        CLEAR     72  66  80 CALM      30.20R
HILLSVILLE*    CLEAR     69  63  82 CALM      30.19R
RICHLANDS*     MOCLDY    74  61  63 CALM      30.18R
WISE*          CLEAR     72  63  73 CALM      30.20R
ABINGDON*      CLEAR     75  69  81 CALM      30.14S
$$

MDZ021>025-VAZ099-100-270300-
SOUTHERN MARYLAND AND THE DELMARVA PENINSULA

CITY           SKY/WX    TMP DP  RH WIND       PRES   REMARKS
PATUXENT RIVER MOCLDY    75  69  81 SE12      30.11R
BAY BRIDGE APT CLOUDY    73  64  73 SE12      30.12R
LEONARDTOWN    PTCLDY    72  66  83 SE7       30.13R
DOVER          CLEAR     68  68 100 SE6       30.13R
GEORGETOWN     MOCLDY    68  63  84 CALM      30.15R
EASTON         MOCLDY    72  64  78 SE5       30.17R
CAMBRIDGE      PTCLDY    70  66  88 SE7       30.13R
SALISBURY      PTCLDY    67  66  97 E5        30.13S
OCEAN CITY     CLOUDY    72  65  78 SE7       30.14S
WALLOPS ISLAND CLEAR     72  67  84 E7        30.14R
ACCOMACK*      MOCLDY    72  66  81 SE7       30.13R
$$

NCZ012>017-030>032-270300-
NORTH CENTRAL AND EASTERN NORTH CAROLINA

CITY           SKY/WX    TMP DP  RH WIND       PRES   REMARKS
ROANOKE RAPIDS FAIR      75  68  78 SE3       30.10R
RALEIGH        MOCLDY    82  68  62 S7        30.09R
ELIZABETH CITY CLEAR     74  69  85 E8        30.12S
AHOSKIE*         N/A     73  67  83 SE5       30.11S
EDENTON*       CLEAR     75  68  79 CALM      30.12S
CURRITUCK*     CLEAR     73  67  81 CALM      30.13R
KILL DEVIL HLS CLEAR     74  65  73 CALM      30.11S
MANTEO         CLEAR     73  66  76 SE7       30.13S
CAPE HATTERAS  CLEAR     74  67  78 E6        30.11S
TARBORO*       NOT AVBL
GOLDSBORO      PTCLDY    79  71  77 SE6       30.09R
WASHINGTON     CLEAR     75  67  76 CALM      30.12R
GREENVILLE     CLEAR     77  68  73 SE7       30.12R
NEW BERN       CLEAR     77  68  73 E5        30.12R
WILMINGTON     CLOUDY    77  70  79 E5        30.10R
$$

VAZ048-270300-
ELSEWHERE

CITY           SKY/WX    TMP DP  RH WIND       PRES   REMARKS
HARRISBURG PA  CLOUDY    73  68  84 S6        30.10R
BALTIMORE      MOCLDY    74  67  78 SE10      30.11R
ANNAPOLIS      PTCLDY    76  71  85 SE18      30.12R
ANDREWS AFB    PTCLDY    72  68  87 E7        30.11R
PHILADELPHIA   MOCLDY    70  61  73 SE8       30.15R
HENDERSON NC   CLEAR     75  66  73 S3        30.09S
GREENSBORO     PTCLDY    79  70  74 CALM      30.10S
ROCKY MOUNT    CLEAR     76  71  85 CALM      30.10R
$$

VAZ100-270300-
MARINE

STATION/POSITION TIME  TEMP    WIND        PRES    WAVE   SWELL
                       AIR SEA DIR/SP/G            HT/PER HT/PER
                 (UTC) (F)     (DEG/KT/KT) (MB)    (FT/S) (FT/S)
BRANDYWINE LGT   0142   71     130/ 12/ 13 1020.9R
CAPE MAY NJ      0148   70 76  120/  4/  5 1020.2R
LEWES DE         0148   71 76  130/  4/  7 1020.3R
15NM E FENWICK I 0150   72 77  100/  8/ 10 1021.0R   3/ 5   3/ 5
OCEAN-CITY-INLET 0148   73 74  130/  6/  8 1020.9R
WACHAPREAGUE VA  0148   74 81  120/  6/  8 1020.3R
THOMAS POINT MD  0200   73 82  130/ 16/ 17   N/A
GOOSES REEF MD   0200   75 82  130/ 16/ 19 1019.7    2/ 3
COVE POINT MD    0148   75     160/ 18/ 21 1020.2R
SOLOMONS ISLAND  0142   77 83  150/ 13/ 18   N/A
BISHOPS HEAD MD  0148   74 82  110/ 13/ 16 1020.0R
PINEY POINT MD   0148          180/ 13/ 15   N/A
CAMBRIDGE MD     0148   72 85              1020.9R
LEWISETTA VA     0148   74 84  170/  6/  7 1019.5R
RAPPAHANNOCK LGT 0148          120/ 12/ 15 1020.6R
STINGRAY PT      0200   76 83  170/ 14/ 16 1019.8    2/ 3
YORK RVR RNG VA  0148   75     150/ 16/ 18 1020.0R
YORKTOWN VA      0148   75 82  150/  9/ 12 1019.4R
JAMESTOWN VA     0200      86  150/ 12/ 17   N/A     1
DOMINION TERM VA 0148   75     130/ 13/ 16 1019.7R
KIPTOPEKE VA     0148      77  150/  9/ 11   N/A
CHES BAY BRIDGE  0148   74 76  150/  7/ 13 1019.8S
CAPE HENRY VA    0148   73     130/  8/ 12   N/A
WILLOUBY STN VA  0148   74     140/ 11/ 13 1019.7R
S CRANEY ISL VA  0148   75     240/  3/  6 1019.5F
CAPE HENRY BUOY  0200      74                N/A     3/ 6
1ST LANDING BUOY 0200   75 77              1019.9    2/ 3
64NM E OF VA BCH 0150   75 78   80/  8/ 10 1020.5R   3/ 6   3/ 6
DUCK PIER NC     0148   75 74  100/  9/ 11 1019.6S
44100 DUCK FRF   0135      76                N/A     3/ 7
44056 DUCK FRF   0200      75                N/A     3/ 7
OREGON INLET NC  0142   75 75   70/  7/ 10 1019.9R
HATTERAS NC      0148   75 79   80/  5/  7 1019.6R
DIAMOND SHLS NC  0150   80 83   60/ 10/ 12 1019.3R   3/ 7   3/ 7
CAPE LOOKOUT NC  0200   79      80/ 11/ 13 1019.1R
$$




USA.gov is the U.S. government's official web portal to all federal, state and local government web resources and services.